Hourly Data Report for October 05, 2017

All times are specified in Local Standard Time (LST). Add 1 hour to adjust for Daylight Saving Time where and when it is observed.

ATIKOKAN (AUT)
ONTARIO

48°45'40.000" N
91°37'41.000" W
389.30 m
6020LPQ
71747
WCH

Download Data

Hourly Data (October 2017)
Hourly Data Report for October 5, 2017
Temp Definition
°C
Dew Point Temp Definition
°C
Rel Hum Definition
%
Wind Dir Definition
10's deg

Wind Spd Definition
km/h
Visibility Definition
km
Stn Press Definition
kPa
Hmdx Definition


Wind Chill Definition


Weather Definition


TIME
00:00 7.1 3.9 80 25 6   97.19     LegendNANA
01:00 5.8 3.6 86 25 4   97.21     LegendNANA
02:00 5.1 3.9 92 27 2   97.17     LegendNANA
03:00 4.3 3.3 93 23 3   97.15     LegendNANA
04:00 3.1 2.6 96 25 2   97.17     LegendNANA
05:00 4.3 3.8 96 26 3   97.16     LegendNANA
06:00 4.4 3.8 96 26 2   97.18     LegendNANA
07:00 5.4 4.6 95 28 4   97.19     LegendNANA
08:00 6.2 4.7 90 30 8   97.21     LegendNANA
09:00 7.9 5.4 84 26 6   97.22     LegendNANA
10:00 8.8 4.6 75 27 9   97.21     LegendNANA
11:00 10.6 4.0 64 26 9   97.16     LegendNANA
12:00 10.6 3.5 62 26 10   97.13     LegendNANA
13:00 10.9 2.8 57 31 10   97.11     LegendNANA
14:00 12.1 3.3 55 28 7   97.12     LegendNANA
15:00 12.7 2.8 51 28 9   97.08     LegendNANA
16:00 12.4 1.9 49 29 11   97.06     LegendNANA
17:00 11.0 2.2 55 30 7   97.05     LegendNANA
18:00 7.0 3.4 78 31 3   97.05     LegendNANA
19:00 4.2 2.8 90   0   97.10     LegendNANA
20:00 3.0 2.1 93 0 1   97.13     LegendNANA
21:00 2.3 1.6 95   0   97.16     LegendNANA
22:00 1.0 0.4 96   0   97.16     LegendNANA
23:00 0.4 0.0 97   0   97.15     LegendNANA

Notes on Data Quality.

Legend

  • E = Estimated
  • M = Missing
  • NA = Not Available
  • ‡ = Partner data that is not subject to review by the National Climate Archives
Date modified: